Location: Banska Bystrica
(0.0000°N, 19.1500°E)
Time: 00:09:09
(UTC+02:00)

NOSS 3-1 (A) - Pass Details

Date: 19 February 2019
Orbit: 772 x 1440 km, 63.4° (Epoch: 08 October)

Event Time Altitude Azimuth Distance (km) Brightness Sun altitude
Rises 19:07:53 0° 344° (NNW) 4,385 7.0 -17.3°
Reaches altitude 10° 19:10:45 10° 347° (NNW) 3,465 6.4 -18.0°
Maximum altitude 19:19:22 65° 68° (ENE) 1,559 4.2 -20.1°
Drops below altitude 10° 19:28:02 10° 148° (SSE) 3,495 6.2 -22.2°
Sets 19:30:55 0° 150° (SSE) 4,425 6.7 -23.0°
